Regional Weather Roundup
Issued by NWS

Home | Current Version | Previous Version | Text Only | Print | Product List | Glossary Off
Versions: 1 2 3 4 5 6 7 8 9 10 11 12 13 14 15 16 17 18 19 20 21 22 23 24 25 26 27 28 29 30 31 32 33 34 35 36 37 38 39 40 41 42 43 44 45 46 47 48 49 50

601
ASUS45 KBOU 241407
RWRCO

WEATHER ROUNDUP FOR COLORADO
NATIONAL WEATHER SERVICE DENVER/BOULDER CO
700 AM MST TUE JAN 24 2017

NOTE: "FAIR" INDICATES FEW OR NO CLOUDS BELOW 12000 FEET WITH NO
SIGNIFICANT WEATHER AND/OR OBSTRUCTIONS TO VISIBILITY.

COZ001>005-013-030-031-241500-
...NORTHWEST COLORADO...

CITY           SKY/WX    TMP DP  RH WIND       PRES   REMARKS
CRAIG          LGT SNOW  24  21  88 NW6       29.60R FOG     WCI  17
HAYDEN         MOCLDY    21  18  86 NW9       29.57R WCI  11
MEEKER         FLURRIES  25  23  92 SW3       29.58R
MOUNT WERNER   NOT AVBL
STEAMBOAT SPGS CLOUDY    20  18  92 SE5       29.56R WCI  13
WALDEN           N/A      9   1  72 SE8       29.52S WCI  -4
$$

COZ006>008-011-241500-
...WEST CENTRAL VALLEYS...

CITY           SKY/WX    TMP DP  RH WIND       PRES   REMARKS
GRAND JUNCTION FLURRIES  28  27  96 CALM      29.61R
MONTROSE       FLURRIES  29  25  85 N5        29.62R WCI  24
EAGLE          LGT SNOW  16  14  93 CALM      29.61R VSB 1
RIFLE          MOCLDY    26  24  92 CALM      29.60R
DELTA          CLOUDY    32  26  81 CALM      29.62R
NUCLA          MOCLDY    28  27  93 E3        29.64R
$$

COZ017>023-064>068-241500-
...SOUTHWEST COLORADO...

CITY           SKY/WX    TMP DP  RH WIND       PRES   REMARKS
DURANGO        MIX PCPN  21  18  88 SE3       29.60R
CORTEZ         LGT SNOW  26  25  96 CALM      29.62R FOG
PAGOSA SPRINGS LGT SNOW  24  24  99 SW6       29.57R WCI  17
TELLURIDE      FLURRIES  18  17  94 W5        29.55R WCI  11
WOLF CREEK PAS CLOUDY     9   7  92 S9        29.53R WCI  -5
$$

COZ009-010-012-014-032>034-037-058>063-241500-
...CENTRAL COLORADO...

CITY           SKY/WX    TMP DP  RH WIND       PRES   REMARKS
ASPEN          LGT SNOW  17  13  84 SW5       29.53R FOG     WCI  10
BUENA VISTA    MOCLDY    10   5  80 S3        29.53R
COPPER MTN     FLURRIES  10   3  72 MISG      29.47R
BERTHOUD PASS  CLOUDY     1  -8  66 MISG      29.45R
COTTONWOOD PAS MOCLDY    19   9  63 W8        29.49R WCI   9
GUNNISON       LGT SNOW  13  10  88 CALM      29.57R FOG
KREMMLING      MOCLDY    14  10  85 CALM      29.58R
LEADVILLE      CLOUDY     4   0  83 CALM      29.48S
MONARCH PASS     N/A      9   3  78 CALM      29.56R
SALIDA         FAIR      19  11  71 NW3       29.61R
SUNLIGHT       CLOUDY    10   9  92 SW7       29.53S WCI   0
WILKERSON PASS NOT AVBL
$$

COZ069>075-241500-
...SAN LUIS VALLEY/SANGRE DE CRISTO MOUNTAINS...

CITY           SKY/WX    TMP DP  RH WIND       PRES   REMARKS
ALAMOSA        FLURRIES  21  18  88 S10       29.51S WCI  10
LA VETA PASS   LGT SNOW  18  14  86 N13G23    29.49R WCI   4
SAGUACHE       NOT AVBL
$$

COZ035-036-038>040-241500-
...NORTHERN COLORADO FRONT RANGE...

CITY           SKY/WX    TMP DP  RH WIND       PRES   REMARKS
DENVER INTL AP CLOUDY    30  27  88 SW5       29.51S WCI  25
DMNS CITY PARK   N/A     31  26  83 MISG      29.52R
AURORA         MOCLDY    29  28  95 CALM      29.52R
FRONT RANGE AP CLOUDY    32  30  93 W3        29.51
ERIE MUNI ARPT FAIR      24  23  95 CALM      29.53R
BOULDER MUN AP FAIR      28  21  74 W6        29.52R WCI  22
CENTENNIAL     FAIR      25  23  92 W3        29.51R
BROOMFIELD     PTCLDY    28  25  86 W8        29.52R WCI  20
FORT COLLINS   FAIR      19  18  93 E9        29.54R WCI   9
LONGMONT       FAIR      25  22  86 W5        29.55R WCI  20
$$

COZ041-046-047-076>085-087-088-241500-
...PIKES PEAK/PALMER DIVIDE AND SOUTHERN FOOTHILLS...

CITY           SKY/WX    TMP DP  RH WIND       PRES   REMARKS
COLO. SPRINGS  MOCLDY    26  19  74 N15       29.48R WCI  14
A. F. ACADEMY  FAIR      25  21  86 N10       29.47R WCI  14
SCHRIEVER AFB  FAIR      26  22  82 N16       29.47R WCI  14
ELLICOTT       FAIR     N/A N/A N/A N8        29.47R
FALCON         FAIR      25  23  91 N13       29.48R WCI  13
FORT CARSON    FAIR      25  18  75 NW9       29.46R WCI  15
LIMON          CLOUDY    28  28 100 N18       29.47F WCI  15
MONUMENT HILL  FOG       25  23  93 NW9       29.50S VSB 1/2 WCI  15
TRINIDAD       CLOUDY    34  23  64 SW16      29.50R WCI  24
$$

COZ042>045-048>051-090-091-241500-
...NORTHEAST COLORADO...

CITY           SKY/WX    TMP DP  RH WIND       PRES   REMARKS
GREELEY ARPT   CLOUDY    29  28  96 N10       29.55R WCI  20
AKRON          FRZ RAIN  27  25  92 N13       29.51R VSB 1/2 WCI  16
BURLINGTON     FOG       30  29  96 N14G23    29.46R VSB 3/4 WCI  19
WRAY           NOT AVBL
STERLING       CLOUDY    30  27  86 N17       29.53S WCI  18
HOLYOKE        CLOUDY    34  32  93 NE13      29.52R FOG     WCI  25
FORT MORGAN    CLOUDY    28  26  91 N16       29.54R WCI  16
$$

COZ086-089-092>099-241500-
...SOUTHEAST COLORADO...

CITY           SKY/WX    TMP DP  RH WIND       PRES   REMARKS
PUEBLO         FAIR      30  20  66 NW3       29.46R
LA JUNTA       FAIR      33  27  78 NW6       29.47R WCI  28
LAMAR          FAIR      30  26  85 W7        29.46R WCI  23
SPRINGFIELD      N/A     33  28  81 W10       29.45F WCI  25
$$




USA.gov is the U.S. government's official web portal to all federal, state and local government web resources and services.